Weather History for Buffalo, SD

Change the Weather History Date:

Wednesday, February 13, 2013

  Actual Average Record
Temperature  
Mean Temperature 37 °F 23 °F  
Max Temperature 45 °F 33 °F 57 °F (1999)
Min Temperature 29 °F 13 °F -5 °F (2001)
Degree Days  
Heating Degree Days 28 42  
Month to date heating degree days 428 559  
Since 1 July heating degree days 4761 5198  
Cooling Degree Days 0 0  
Month to date cooling degree days 0 0  
Year to date cooling degree days 0 0  
Moisture  
Dew Point 24 °F    
Average Humidity 62    
Maximum Humidity 75    
Minimum Humidity 49    
Precipitation  
Precipitation 0.00 in 0.01 in 0.02 in (2008)
Month to date precipitation 0.01 0.14  
Year to date precipitation 0.11 0.43  
Sea Level Pressure  
Sea Level Pressure 29.76 in    
Wind  
Wind Speed 25 mph (WNW)    
Max Wind Speed 46 mph    
Max Gust Speed 59 mph    
T = Trace of Precipitation, MM = Missing Value Source: NWS Daily Summary

Daily Weather History Graph

Daily Weather History Graph

Search for Another Location

Airport:

Trip Planner

Search our weather history database for the weather conditions in past years. The results will help you decide how hot, cold, wet, or windy it might be!

Date:

Astronomy

Feb. 13, 2013 Rise Set
Actual Time 6:58 AM MST 5:18 PM MST
Civil Twilight 6:28 AM MST 5:49 PM MST
Nautical Twilight 5:53 AM MST 6:24 PM MST
Astronomical Twilight 5:18 AM MST 6:58 PM MST
Moon 8:15 AM MST (2/13) 9:39 PM MST (2/13)
Length of Visible Light 11h 21m
Length of Day
10h 20m
Waxing Crescent, 14% of the Moon is Illuminated
Feb 13
Waxing Crescent
Feb 17
First Quarter
Feb 25
Full
Mar 4
Last Quarter
Mar 11
New

Hourly Weather History & Observations

Time (MST) Temp. Windchill Dew Point Humidity Pressure Visibility Wind Dir Wind Speed Gust Speed Precip Events Conditions
12:56 AM 32.0 °F 23.6 °F 23.0 °F 69% 29.80 in - WSW 10.4 mph - N/A   Unknown
1:56 AM 33.1 °F 24.9 °F 23.0 °F 66% 29.77 in - West 10.4 mph - N/A   Unknown
2:56 AM 30.9 °F 21.7 °F 21.9 °F 69% 29.75 in - West 11.5 mph - N/A   Unknown
3:56 AM 32.0 °F 20.8 °F 21.9 °F 66% 29.72 in - WSW 17.3 mph - N/A   Unknown
4:56 AM 34.0 °F 23.0 °F 21.0 °F 59% 29.70 in - West 18.4 mph - N/A   Unknown
5:56 AM 37.0 °F 27.7 °F 21.9 °F 54% 29.69 in - West 16.1 mph - N/A   Unknown
6:56 AM 39.0 °F 27.6 °F 23.0 °F 53% 29.69 in - West 27.6 mph 38.0 mph N/A   Unknown
7:56 AM 37.9 °F 26.8 °F 24.1 °F 57% 29.69 in - West 24.2 mph 33.4 mph N/A   Unknown
8:56 AM 44.1 °F 32.3 °F 26.1 °F 49% 29.66 in - NW 42.6 mph 58.7 mph N/A   Unknown
9:56 AM 42.1 °F 31.1 °F 28.9 °F 60% 29.69 in - WNW 31.1 mph 44.9 mph N/A   Unknown
10:56 AM 41.0 °F 28.8 °F 33.1 °F 73% 29.71 in - WNW 36.8 mph 46.0 mph N/A   Unknown
11:56 AM 43.0 °F 31.8 °F 28.9 °F 58% 29.70 in - NW 34.5 mph 42.6 mph N/A   Unknown
12:56 PM 43.0 °F 32.5 °F 27.0 °F 53% 29.70 in - WNW 29.9 mph 35.7 mph N/A   Unknown
1:56 PM 43.0 °F 32.9 °F 28.0 °F 56% 29.70 in - WNW 27.6 mph 36.8 mph N/A   Unknown
2:56 PM 43.0 °F 32.4 °F 28.0 °F 56% 29.74 in - WNW 31.1 mph 36.8 mph N/A   Unknown
3:56 PM 41.0 °F 29.5 °F 25.0 °F 53% 29.75 in - NW 32.2 mph 40.3 mph N/A   Unknown
4:56 PM 39.9 °F 28.8 °F 25.0 °F 55% 29.78 in - NW 27.6 mph 33.4 mph N/A   Unknown
5:56 PM 36.0 °F 23.5 °F 28.0 °F 73% 29.81 in - NW 27.6 mph 38.0 mph N/A   Unknown
6:56 PM 33.1 °F 20.9 °F 26.1 °F 75% 29.83 in - WNW 21.9 mph - N/A   Unknown
7:56 PM 34.0 °F 20.8 °F 24.1 °F 67% 29.86 in - NW 27.6 mph 38.0 mph N/A   Unknown
8:56 PM 30.9 °F 18.1 °F 23.0 °F 72% 29.87 in - WNW 21.9 mph - N/A   Unknown
9:56 PM 30.9 °F 17.2 °F 21.0 °F 67% 29.89 in - WNW 25.3 mph - N/A   Unknown
10:56 PM 33.1 °F 21.2 °F 19.0 °F 56% 29.88 in - West 20.7 mph - N/A   Unknown
11:56 PM 33.1 °F 20.9 °F 15.1 °F 48% 29.88 in - WNW 21.9 mph - N/A   Unknown